Main page
METAR-TAF:

METAR-TAF

Airports :

Camiri Airport

Camiri, Bolivia

latitude: 20-00S, longitude: 063-32W, elevation: 798 m

Current weather observation

The report was made 18 hours and 47 minutes ago, at 21:00 UTC
Calm wind
Temperature 23°C
Humidity 41%
Pressure 1020 hPa
Visibility 10 km or more
Overcast at a height of 7000 ft

METAR: SLCA 302100Z 00000KT 9999 OVC070 23/09 Q1020

Time: 11:47 (15:47 UTC)


TAF: missing

Weather observations and forecasts of more than 4000 airports (METAR and TAF reports).

The available stations are represented by yellow and red dots on the map.

Hover mouse over dot to see the name of the station.

Then click to see weather observations and forecasts.

To change the map : click on the green buttons with a black cross to zoom in, on the green button with a dash to zoom out, or on the green arrows for adjacent maps.


METAR-TAF: